Weather Roundup
Issued by NWS Springfield, MO

Home | Current Version | Previous Version | Text Only | Print | Product List | Glossary On
Versions: 1 2 3 4 5 6 7 8 9 10 11 12 13 14 15 16 17 18 19 20 21 22 23 24 25 26 27 28 29 30 31 32 33 34 35 36 37 38 39 40 41 42 43 44 45 46 47 48 49 50
000
NZUS99 KSGF 172307
HRRSGF

HOURLY WEATHER
NATIONAL WEATHER SERVICE SPRINGFIELD MO
500 PM CST SUN DEC 17 2017

......SGF CWA......

CITY           SKY/WX    TMP DP  RH WIND       PRES   REMARKS
SPRINGFIELD    CLOUDY    45  45 100 SW3       30.04R FOG
JOPLIN         CLOUDY    46  44  93 SW5       30.05R
WEST PLAINS    CLOUDY    46  44  93 S5        30.07R
ROLLA          CLOUDY    47  43  86 SW7       30.04R
OSAGE BEACH    CLOUDY    46  44  93 SW5       30.05R
BRANSON        FOG       45  45 100 CALM      30.05R VSB 3/4

......SURROUNDING SGF CWA......

CITY           SKY/WX    TMP DP  RH WIND       PRES   REMARKS
CHANUTE        CLOUDY    46  44  93 S7        30.02F
PARSONS        CLOUDY    46  45  96 S3        30.04S
COFFEYVILLE    CLOUDY    46  44  93 S6        30.05R
EMPORIA        CLOUDY    48  40  73 S12       29.98R
GROVE OK       CLOUDY    46  45  93 CALM      30.06R
ROGERS AR      CLOUDY    46  45  96 SW3       30.05R
SILOAM SPRINGS CLOUDY    46  45  96 SW3       30.06R
HARRISON AR    CLOUDY    47  47 100 CALM      30.05R FOG
NEAR YELLVILLE CLOUDY    49  47  93 CALM      30.06S

......KANSAS AND MISSOURI......

CITY           SKY/WX    TMP DP  RH WIND       PRES   REMARKS
KANSAS CTY INT CLOUDY    45  43  93 S5        29.98S
DOWNTOWN KC    CLOUDY    49  42  77 CALM      29.99S
COLUMBIA       CLOUDY    45  44  97 SW5       30.02R FOG
SEDALIA        CLOUDY    46  45  96 SW7       30.03S
ST JOSEPH      CLOUDY    45  44  97 CALM      30.00R
ST LOUIS       CLOUDY    53  42  66 SW9       30.02R
SPIRIT OF STL  CLOUDY    51  42  71 SW9       30.02R
KIRKSVILLE     CLOUDY    44  32  62 SW8       29.99R HAZE
WICHITA        MOCLDY    47  40  76 SW9       29.99S
TOPEKA         MOCLDY    47  44  90 SE3       29.98S
OLATHE         CLOUDY    45  43  93 S6        29.99S

......TENNESSEE......

CITY           SKY/WX    TMP DP  RH WIND       PRES   REMARKS
MEMPHIS        CLOUDY    47  45  93 SW6       30.11R
NASHVILLE      CLOUDY    47  44  90 S3        30.13R FOG

......ARKANSAS.......

CITY           SKY/WX    TMP DP  RH WIND       PRES   REMARKS
FAYETTEVILLE   MOCLDY    47  47 100 SW6       30.06R
FT SMITH       CLOUDY    49  49 100 NE3       30.07R FOG
LITTLE ROCK    CLOUDY    46  46 100 SE5       30.11R FOG

......OKLAHOMA.......

CITY           SKY/WX    TMP DP  RH WIND       PRES   REMARKS
TULSA          CLOUDY    47  44  90 S6        30.07R
PONCA CITY     CLOUDY    47  41  80 S6        30.02R
MCALESTER      CLOUDY    48  45  89 S6        30.08R FOG
OKLAHOMA CITY  CLOUDY    45  43  93 S7        30.04R

......IOWA............

CITY           SKY/WX    TMP DP  RH WIND       PRES   REMARKS
DES MOINES     CLOUDY    37  31  78 S5        29.97R WCI  33
QUAD CITIES    LGT RAIN  42  35  76 CALM      29.98R

......ILLINOIS........

CITY           SKY/WX    TMP DP  RH WIND       PRES   REMARKS
QUINCY         CLOUDY    47  42  83 SW12      30.00R
CHICAGO        CLOUDY    40  31  70 CALM      29.97S




USA.gov is the U.S. government's official web portal to all federal, state and local government web resources and services.